Athens, OH

4:00 AM EDT on May 26, 2017 (GMT -0400)
Ohio University

Weather History for KUNI - April, 2013

Change the Weather History Date:

Wednesday, April 10, 2013

  Actual Average (KPKB) Record (KPKB)
Temperature  
Mean Temperature 72 °F -  
Max Temperature 83 °F 60 °F 86 °F (2013)
Min Temperature 61 °F 36 °F 17 °F (1997)
Cooling Degree Days 7    
Growing Degree Days 22 (Base 50)    
Moisture  
Dew Point 54 °F    
Average Humidity 52    
Maximum Humidity 75    
Minimum Humidity 34    
Precipitation  
Precipitation 0.00 in - - ()
Sea Level Pressure  
Sea Level Pressure 29.93 in    
Wind  
Wind Speed 9 mph (SW)    
Max Wind Speed 25 mph    
Max Gust Speed 32 mph    
Visibility 10 miles    
Events Thunderstorm    
Averages and records for this station are not official NWS values.
T = Trace of Precipitation, MM = Missing Value Source: NWS Daily Summary

Daily Weather History Graph

Daily Weather History Graph

Search for Another Location

Airport or City:

Trip Planner

Search our weather history database for the weather conditions in past years. The results will help you decide how hot, cold, wet, or windy it might be!

Date:

Astronomy

Apr. 10, 2013 Rise Set
Actual Time 6:59 AM EDT 8:01 PM EDT
Civil Twilight 6:31 AM EDT 8:29 PM EDT
Nautical Twilight 5:59 AM EDT 9:01 PM EDT
Astronomical Twilight 5:25 AM EDT 9:35 PM EDT
Moon 6:54 AM EDT (4/10) 8:35 PM EDT (4/10)
Length of Visible Light 13h 57m
Length of Day
13h 02m
New Moon, 0% of the Moon is Illuminated
Apr 10
New Moon
Apr 18
First Quarter
Apr 25
Full
May 2
Last Quarter
May 9
New

Hourly Weather History & Observations

Time (EDT) Temp. Heat Index Dew Point Humidity Pressure Visibility Wind Dir Wind Speed Gust Speed Precip Events Conditions
12:15 AM 68.0 °F - 51.1 °F 55% 29.98 in 10.0 mi WSW 6.9 mph - N/A   Clear
12:35 AM 68.4 °F - 51.8 °F 55% 29.98 in 10.0 mi WSW 8.1 mph - N/A   Clear
12:55 AM 68.2 °F - 52.2 °F 56% 29.99 in 10.0 mi WSW 8.1 mph - N/A   Clear
1:15 AM 68.9 °F - 52.5 °F 56% 29.99 in 10.0 mi WSW 9.2 mph - N/A   Clear
1:35 AM 67.6 °F - 52.7 °F 59% 29.99 in 10.0 mi WSW 9.2 mph - N/A   Clear
1:55 AM 67.8 °F - 53.1 °F 59% 29.99 in 10.0 mi WSW 8.1 mph - N/A   Scattered Clouds
2:15 AM 68.9 °F - 53.6 °F 58% 29.99 in 10.0 mi SW 5.8 mph - N/A   Mostly Cloudy
2:35 AM 68.9 °F - 53.8 °F 58% 29.98 in 10.0 mi SSW 5.8 mph - N/A   Overcast
2:55 AM 68.0 °F - 54.0 °F 61% 29.98 in 10.0 mi SSW 4.6 mph - N/A   Scattered Clouds
3:15 AM 67.6 °F - 54.5 °F 63% 29.98 in 10.0 mi SSW 4.6 mph - N/A   Mostly Cloudy
3:35 AM 67.1 °F - 54.5 °F 64% 29.98 in 10.0 mi South 5.8 mph - N/A   Mostly Cloudy
3:55 AM 66.0 °F - 54.1 °F 65% 29.98 in 10.0 mi South 5.8 mph - N/A   Mostly Cloudy
4:15 AM 64.8 °F - 54.0 °F 68% 29.97 in 10.0 mi South 5.8 mph - N/A   Scattered Clouds
4:35 AM 64.6 °F - 54.0 °F 68% 29.97 in 10.0 mi South 4.6 mph - N/A   Clear
4:55 AM 63.5 °F - 53.8 °F 71% 29.97 in 10.0 mi SSW 3.5 mph - N/A   Clear
5:15 AM 63.7 °F - 54.0 °F 71% 29.97 in 10.0 mi SSW 4.6 mph - N/A   Clear
5:35 AM 63.1 °F - 53.8 °F 71% 29.97 in 10.0 mi South 4.6 mph - N/A   Clear
5:55 AM 63.7 °F - 54.0 °F 71% 29.97 in 10.0 mi SSW 3.5 mph - N/A   Mostly Cloudy
6:15 AM 62.4 °F - 53.8 °F 73% 29.97 in 10.0 mi Calm Calm - N/A   Mostly Cloudy
6:35 AM 61.5 °F - 53.6 °F 75% 29.98 in 10.0 mi Calm Calm - N/A   Scattered Clouds
6:55 AM 61.9 °F - 53.6 °F 74% 29.98 in 10.0 mi SSW 3.5 mph - N/A   Scattered Clouds
7:15 AM 62.2 °F - 53.6 °F 73% 29.98 in 10.0 mi SSW 4.6 mph - N/A   Scattered Clouds
7:35 AM 63.0 °F - 53.6 °F 71% 29.99 in 10.0 mi SSW 5.8 mph - N/A   Scattered Clouds
7:55 AM 63.3 °F - 53.6 °F 71% 29.98 in 10.0 mi South 6.9 mph - N/A   Scattered Clouds
8:15 AM 65.3 °F - 53.6 °F 66% 29.98 in 10.0 mi South 9.2 mph - N/A   Scattered Clouds
8:35 AM 66.9 °F - 53.2 °F 61% 29.99 in 10.0 mi SSW 6.9 mph - N/A   Scattered Clouds
8:55 AM 68.9 °F - 53.2 °F 57% 29.99 in 10.0 mi SSW 8.1 mph - N/A   Clear
9:15 AM 70.3 °F - 53.2 °F 55% 29.99 in 10.0 mi SSW 9.2 mph 16.1 mph N/A   Clear
9:35 AM 72.5 °F - 53.1 °F 50% 29.98 in 10.0 mi SSW 9.2 mph - N/A   Clear
9:55 AM 74.5 °F - 53.6 °F 48% 29.98 in 10.0 mi SSW 6.9 mph - N/A   Clear
10:15 AM 75.9 °F - 53.8 °F 46% 29.97 in 10.0 mi SW 13.8 mph 19.6 mph N/A   Clear
10:35 AM 77.4 °F - 54.7 °F 45% 29.97 in 10.0 mi SW 19.6 mph 24.2 mph N/A   Clear
10:55 AM 78.1 °F - 55.4 °F 45% 29.97 in 10.0 mi WSW 13.8 mph 23.0 mph N/A   Clear
11:15 AM 79.0 °F - 55.4 °F 44% 29.97 in 10.0 mi WSW 21.9 mph 31.1 mph N/A   Clear
11:35 AM 78.8 °F - 55.6 °F 45% 29.97 in 10.0 mi SW 16.1 mph 24.2 mph N/A   Clear
11:55 AM 80.2 °F 80.4 °F 55.8 °F 43% 29.97 in 10.0 mi SW 17.3 mph 26.5 mph N/A   Clear
12:15 PM 80.6 °F 80.6 °F 56.1 °F 43% 29.96 in 10.0 mi SW 17.3 mph 27.6 mph N/A   Clear
12:35 PM 81.7 °F 81.4 °F 56.5 °F 42% 29.95 in 10.0 mi WSW 25.3 mph 32.2 mph N/A   Clear
12:55 PM 81.9 °F 81.6 °F 56.7 °F 42% 29.95 in 10.0 mi WSW 23.0 mph 31.1 mph N/A Thunderstorm Clear
1:15 PM 82.4 °F 82.0 °F 57.0 °F 42% 29.94 in 10.0 mi WSW 20.7 mph 32.2 mph N/A   Clear
1:35 PM 82.2 °F 81.8 °F 56.7 °F 41% 29.94 in 10.0 mi West 21.9 mph 29.9 mph N/A   Scattered Clouds
1:55 PM 82.8 °F 82.2 °F 56.7 °F 41% 29.93 in 10.0 mi SW 13.8 mph 24.2 mph N/A   Clear
2:15 PM 82.2 °F 81.9 °F 57.0 °F 42% 29.92 in 10.0 mi WSW 17.3 mph 27.6 mph N/A   Clear
2:35 PM 83.1 °F 82.6 °F 56.8 °F 41% 29.91 in 10.0 mi SW 12.7 mph 23.0 mph N/A   Scattered Clouds
2:55 PM 83.1 °F 82.3 °F 55.9 °F 39% 29.91 in 10.0 mi WSW 12.7 mph 28.8 mph N/A   Mostly Cloudy
3:15 PM 83.7 °F 83.0 °F 56.7 °F 40% 29.90 in 10.0 mi SW 12.7 mph 24.2 mph N/A   Scattered Clouds
3:35 PM 83.7 °F 82.8 °F 55.9 °F 39% 29.89 in 10.0 mi SW 20.7 mph 27.6 mph N/A   Scattered Clouds
3:55 PM 83.5 °F 82.6 °F 55.8 °F 39% 29.88 in 10.0 mi SSW 15.0 mph 27.6 mph N/A   Scattered Clouds
4:15 PM 81.9 °F 81.3 °F 55.6 °F 40% 29.87 in 10.0 mi WSW 9.2 mph 20.7 mph N/A   Mostly Cloudy
4:35 PM 81.9 °F 81.3 °F 55.6 °F 40% 29.86 in 10.0 mi WSW 18.4 mph 26.5 mph N/A   Mostly Cloudy
4:55 PM 82.9 °F 82.0 °F 54.9 °F 38% 29.85 in 10.0 mi WSW 19.6 mph 25.3 mph N/A   Scattered Clouds
5:15 PM 83.1 °F 82.2 °F 54.9 °F 38% 29.85 in 10.0 mi SW 13.8 mph 27.6 mph N/A   Scattered Clouds
5:35 PM 82.2 °F 81.3 °F 53.8 °F 37% 29.85 in 10.0 mi WSW 15.0 mph 21.9 mph N/A   Scattered Clouds
5:55 PM 82.0 °F 81.3 °F 54.0 °F 38% 29.84 in 10.0 mi WSW 12.7 mph 21.9 mph N/A   Scattered Clouds
6:15 PM 82.4 °F - 52.5 °F 35% 29.83 in 10.0 mi SW 16.1 mph 26.5 mph N/A   Scattered Clouds
6:35 PM 82.4 °F - 51.6 °F 34% 29.83 in 10.0 mi SW 12.7 mph 18.4 mph N/A   Scattered Clouds
6:55 PM 81.7 °F - 51.8 °F 35% 29.83 in 10.0 mi SW 12.7 mph 26.5 mph N/A   Clear
7:15 PM 81.5 °F - 51.4 °F 35% 29.82 in 10.0 mi SW 13.8 mph 19.6 mph N/A   Clear
7:35 PM 80.8 °F - 50.9 °F 35% 29.82 in 10.0 mi WSW 17.3 mph 23.0 mph N/A   Clear
7:55 PM 79.5 °F - 51.3 °F 37% 29.83 in 10.0 mi WSW 11.5 mph 19.6 mph N/A   Clear
8:15 PM 77.7 °F - 53.1 °F 42% 29.84 in 10.0 mi West 6.9 mph - N/A   Clear
8:35 PM 76.3 °F - 53.6 °F 45% 29.84 in 10.0 mi WSW 6.9 mph - N/A   Clear
8:55 PM 75.9 °F - 53.2 °F 45% 29.85 in 10.0 mi Calm Calm - N/A   Clear
9:15 PM 74.3 °F - 53.6 °F 48% 29.86 in 10.0 mi Calm Calm - N/A   Clear
9:35 PM 71.4 °F - 54.3 °F 55% 29.86 in 10.0 mi Calm Calm - N/A   Mostly Cloudy
9:55 PM 70.3 °F - 54.9 °F 58% 29.88 in 10.0 mi NNE 10.4 mph 17.3 mph N/A   Overcast
10:15 PM 69.3 °F - 53.6 °F 57% 29.88 in 10.0 mi NE 13.8 mph 18.4 mph N/A   Overcast
10:35 PM 68.0 °F - 53.6 °F 60% 29.87 in 10.0 mi ENE 11.5 mph - N/A   Overcast
10:55 PM 66.2 °F - 53.6 °F 64% 29.87 in 10.0 mi NE 10.4 mph - N/A   Mostly Cloudy
11:15 PM 65.3 °F - 53.6 °F 66% 29.86 in 10.0 mi ENE 8.1 mph - N/A   Mostly Cloudy
11:35 PM 65.3 °F - 53.6 °F 66% 29.86 in 10.0 mi ENE 6.9 mph - N/A   Scattered Clouds
11:55 PM 63.5 °F - 53.1 °F 69% 29.86 in 10.0 mi ENE 5.8 mph - N/A   Clear